Theta_e
345 341 341 331 321 318 312 314 320 317 318 324 326 325 322 324 322 319 346 348 350 354 351 353 361 360 361 363 364 367 366 365 363 364 363 363 363 362 361 362 360 361 361 358 357 359 357 356 357
342 334 331 325 316 310 311 316 314 318 321 324 324 322 323 326 332 336 343 348 354 354 350 352 360 361 361 362 363 366 366 365 364 364 364 363 363 362 360 361 360 361 362 359 356 356 355 354 353
342 331 321 319 315 309 310 315 318 320 322 323 322 325 325 329 338 340 347 347 354 354 351 358 361 361 360 361 362 364 366 365 365 365 364 364 363 363 362 362 361 360 361 360 358 356 355 355 354
330 325 322 315 311 314 313 316 319 322 324 325 325 322 337 342 341 344 348 349 348 351 356 359 360 359 359 359 360 362 363 364 364 364 364 363 362 363 362 362 360 359 360 360 358 357 356 355 354
326 321 316 315 311 313 317 319 321 322 324 322 326 322 335 344 348 349 349 347 344 348 358 354 360 358 358 358 357 358 360 362 363 363 360 360 360 360 358 358 357 358 359 359 358 357 357 356 355
317 321 314 309 310 314 316 319 321 322 323 324 322 325 335 347 347 350 349 348 345 347 355 353 358 358 357 357 357 357 358 358 359 360 360 359 358 357 358 358 357 357 357 357 358 359 359 358 357
315 318 311 310 311 311 315 320 320 321 322 322 327 328 337 342 347 350 351 352 350 349 352 354 351 355 357 357 357 358 358 358 357 358 357 357 356 356 356 356 357 357 357 357 357 359 359 358 357
320 317 311 311 311 310 318 319 320 319 324 333 336 329 331 343 349 350 351 349 348 349 350 352 354 352 350 348 357 357 357 357 357 357 357 357 357 357 356 357 356 356 356 356 358 358 358 358 357
320 312 310 309 310 312 320 319 323 323 329 333 337 339 343 346 347 346 346 346 347 347 348 349 348 351 350 349 354 356 357 357 356 356 357 355 347 349 350 352 354 357 358 357 358 358 357 357 356
314 312 310 313 313 312 319 321 322 323 329 327 334 341 344 345 344 342 341 340 340 343 345 349 349 349 348 347 359 358 353 351 351 350 354 354 349 350 348 354 357 357 357 357 357 357 357 356 344
316 311 313 314 317 316 318 325 329 329 327 331 332 338 342 342 341 339 342 344 339 342 347 352 352 353 349 352 351 348 350 352 354 354 354 354 350 347 346 345 348 351 354 349 351 350 348 343 340
312 314 314 320 319 320 320 330 331 332 333 338 340 343 343 343 342 341 339 339 340 339 345 350 353 354 356 353 351 350 347 353 354 355 358 364 352 352 348 346 347 349 346 349 348 344 349 348 347
313 313 315 321 323 326 330 330 332 333 338 341 342 342 340 338 337 335 336 336 336 338 344 346 350 349 349 350 347 349 349 342 343 343 349 352 351 351 349 349 346 342 341 341 341 341 343 341 341
315 314 314 322 323 327 328 329 333 336 340 337 333 332 332 331 331 332 333 333 335 338 337 342 345 349 348 353 352 348 347 351 348 343 340 350 350 348 345 346 344 343 342 341 340 340 342 341 340
314 313 315 319 325 326 332 325 329 337 338 334 330 329 328 328 329 330 332 333 333 336 338 337 343 349 349 349 351 351 349 350 350 344 347 347 346 349 350 344 344 346 347 346 345 344 345 341 343
311 315 311 320 321 323 324 320 329 336 335 328 326 325 325 327 327 330 332 333 335 335 337 340 337 339 344 344 344 343 345 348 347 347 346 346 345 346 349 348 346 343 344 344 343 344 343 340 344
311 308 311 314 320 321 319 321 330 334 333 325 322 321 323 326 328 330 331 333 334 335 336 336 339 337 337 340 337 338 345 342 343 343 346 347 346 346 347 349 346 351 343 341 340 339 341 339 338
307 307 310 311 317 318 319 323 328 331 330 324 322 321 322 324 326 329 332 333 334 333 335 335 334 335 338 333 334 330 330 332 334 336 338 344 340 340 344 344 346 342 341 345 343 339 339 337 337
310 310 310 317 320 318 320 323 325 328 327 322 320 321 322 322 327 330 330 331 332 332 333 333 332 336 332 327 325 324 323 326 326 328 334 336 335 336 341 338 345 343 337 338 342 342 338 337 339
311 310 312 317 319 319 321 320 325 325 323 322 322 322 322 324 326 328 330 330 331 330 331 332 332 334 332 328 329 328 327 324 326 327 336 340 336 339 338 341 338 341 341 337 334 334 336 338 343
311 311 312 312 316 318 318 315 318 326 325 325 326 325 325 325 325 328 328 330 331 330 331 329 330 332 332 333 330 329 329 325 322 324 325 332 332 335 339 339 338 341 341 339 336 336 331 328 335
308 311 311 311 310 304 318 305 314 323 322 324 325 326 325 325 326 327 326 326 325 324 330 328 330 330 330 333 332 334 323 321 323 323 325 330 333 331 332 336 337 338 342 337 337 338 334 332 327
310 312 310 311 310 310 309 307 314 318 316 321 323 324 325 326 325 324 324 323 323 323 324 330 331 330 330 331 332 326 327 323 322 322 328 331 331 333 330 329 331 334 331 335 335 335 334 335 332
314 311 312 312 309 303 307 307 308 311 317 323 322 324 325 324 324 324 324 322 321 321 322 326 326 329 331 329 329 330 326 325 321 323 321 320 321 322 323 322 325 328 331 332 334 335 334 333 332
313 311 303 302 301 301 312 305 313 318 321 324 322 321 323 323 322 320 318 320 319 318 319 320 325 325 330 328 327 325 325 326 322 319 316 315 314 315 314 317 318 325 330 332 332 332 331 332 327
309 309 303 297 298 301 310 306 311 320 324 325 325 323 323 320 320 318 319 319 318 318 319 320 322 323 324 323 323 324 323 317 316 315 313 309 308 309 311 311 315 321 325 329 329 331 327 324 319
311 309 311 305 307 302 305 312 317 319 319 321 322 321 319 320 319 318 319 318 317 318 319 321 322 323 320 321 322 322 318 316 315 314 312 311 307 307 308 309 311 314 317 320 322 317 315 309 307
313 315 305 309 298 295 302 307 307 312 315 318 318 318 318 317 317 317 318 318 318 318 321 323 322 317 320 320 320 317 317 315 314 312 311 310 307 305 306 307 309 312 313 313 314 311 309 307 305
311 310 311 308 307 299 297 303 315 314 316 316 316 317 316 316 316 316 316 317 318 320 320 321 317 319 319 318 318 317 316 315 311 312 310 311 311 306 305 305 306 310 310 309 308 308 307 306 305
312 310 310 303 303 304 303 304 317 316 316 317 315 315 316 316 315 315 315 317 317 317 314 317 320 318 317 315 316 316 312 309 306 309 310 309 308 309 308 305 304 305 306 304 303 303 302 302 304
Wind_Speed
10 14 13 10 6 5 20 12 4 5 8 9 12 9 13 20 16 9 12 5 7 19 17 15 10 10 9 8 7 9 11 12 13 12 11 12 12 13 12 11 10 10 9 8 7 7 6 6 5
13 11 10 9 8 7 7 11 9 8 9 5 11 14 17 19 14 16 14 7 9 14 14 15 11 9 9 8 7 8 10 11 12 12 13 13 12 12 12 11 10 10 8 7 6 7 6 5 5
16 11 12 12 14 7 13 9 9 10 4 7 9 14 14 10 16 14 10 8 15 13 13 16 11 10 10 9 8 8 10 11 11 11 12 12 12 11 11 10 9 9 8 7 6 6 6 5 5
9 10 9 11 9 8 9 7 2 16 18 6 28 9 17 14 14 15 10 10 10 14 17 15 11 9 8 8 8 8 9 11 12 12 12 12 12 11 10 10 9 8 7 7 7 7 7 7 7
10 10 15 3 10 7 9 5 2 23 15 13 25 9 19 16 15 13 9 8 9 12 18 15 11 10 8 7 6 6 6 8 9 10 11 11 9 8 8 6 7 8 8 9 9 8 8 8 8
10 9 13 7 10 11 6 2 5 9 15 17 2 16 17 16 14 11 10 9 11 11 14 15 13 11 9 8 8 7 5 5 5 6 7 6 7 8 7 8 8 7 8 8 9 8 8 8 8
16 11 7 4 9 11 9 6 9 14 10 9 15 30 15 15 11 12 12 10 10 10 15 12 12 10 9 9 9 9 8 7 7 7 6 7 6 7 7 8 9 10 10 10 11 10 10 10 10
10 10 10 4 7 14 7 6 8 9 19 15 19 19 14 11 11 13 12 12 10 8 12 16 12 12 10 11 9 8 9 9 8 8 9 10 10 10 11 9 12 13 12 12 11 10 10 10 11
9 12 6 10 9 11 10 14 10 4 17 19 15 15 12 10 10 12 12 12 10 4 8 11 9 17 12 15 13 10 8 6 6 8 10 9 10 14 14 16 14 18 15 14 14 13 13 13 14
10 10 14 7 8 9 10 14 12 8 18 11 19 13 9 8 13 16 15 14 13 10 4 2 4 5 4 2 15 12 12 10 10 10 11 10 12 11 8 3 9 11 15 15 16 16 16 15 13
7 9 5 5 7 6 7 16 15 18 18 16 13 12 18 15 8 10 15 23 18 17 15 3 8 4 4 7 3 4 6 9 7 3 7 8 11 10 9 8 10 12 18 12 16 15 14 18 15
10 5 5 8 3 6 7 16 18 19 18 15 15 14 14 16 18 18 15 17 9 4 10 10 12 10 8 9 11 5 5 7 4 5 6 4 9 8 8 6 6 5 5 11 11 10 15 17 18
11 6 1 5 6 8 14 16 18 18 17 18 16 18 19 18 20 22 18 19 17 15 16 18 16 11 6 5 5 10 13 7 9 8 14 9 9 8 9 9 10 10 11 11 12 12 10 12 14
5 1 5 8 7 9 13 13 14 21 19 20 17 18 21 21 20 16 18 17 16 16 16 14 11 5 5 6 7 4 1 4 3 5 9 12 8 8 9 9 12 12 12 12 12 12 11 12 15
6 10 10 7 11 11 27 10 16 23 15 21 18 18 18 17 19 19 17 16 17 14 15 16 16 13 10 7 7 5 5 3 6 6 9 10 10 10 12 12 12 12 11 9 7 7 8 7 11
11 13 13 15 7 7 11 14 16 19 18 18 18 17 16 17 17 17 16 16 15 15 16 15 14 14 12 9 7 6 5 2 3 4 5 10 12 11 10 10 11 9 5 7 8 10 10 9 7
11 12 11 11 12 5 7 16 15 13 17 16 16 16 14 15 14 15 14 14 13 14 14 15 14 14 12 7 6 5 2 5 7 5 4 7 10 12 8 9 10 9 4 5 7 10 11 11 11
13 14 12 9 13 12 8 14 9 11 15 15 14 15 13 13 11 12 12 12 12 12 13 13 13 14 12 10 10 10 10 10 9 8 7 10 9 13 12 11 11 9 9 10 9 11 11 12 12
7 4 5 9 3 8 11 11 11 11 14 14 14 13 12 11 11 9 9 9 9 11 12 12 12 12 11 9 10 11 11 11 10 8 9 12 11 12 12 10 9 8 6 9 13 9 9 11 11
7 2 10 7 5 11 11 13 11 12 12 14 13 12 12 10 8 7 7 6 7 9 9 10 11 9 10 10 8 9 10 11 11 10 11 9 11 13 12 11 10 8 9 8 7 9 10 9 9
3 4 7 9 7 13 12 12 3 15 12 12 10 9 9 8 7 6 4 5 7 5 7 8 8 10 8 10 9 9 9 11 11 12 12 14 16 14 12 14 12 8 6 8 9 7 9 6 7
9 3 1 4 12 3 17 4 27 18 18 13 13 8 7 6 4 3 4 4 3 4 7 4 7 9 10 11 10 12 11 13 10 12 13 14 15 13 14 12 13 13 6 9 9 8 7 6 8
8 3 6 8 11 15 11 9 12 14 7 11 10 8 6 3 2 6 4 4 5 5 6 6 5 8 9 12 12 12 13 12 12 13 15 14 14 16 16 20 18 14 11 12 11 10 9 9 7
3 6 9 9 14 12 20 8 17 16 19 11 4 7 4 3 7 1 2 7 11 12 11 9 7 9 7 11 13 14 16 17 15 16 15 15 15 14 16 18 17 16 15 14 11 11 11 9 9
10 9 10 10 8 3 14 7 13 14 11 11 12 7 7 1 9 7 11 14 12 11 10 12 13 13 14 16 14 14 18 16 17 18 15 17 14 13 16 19 19 15 14 13 10 8 9 9 6
4 9 8 9 10 7 10 10 6 12 12 11 11 11 9 9 6 14 15 10 13 11 15 14 14 14 17 13 14 15 18 11 11 12 12 11 11 12 15 14 15 15 14 13 9 7 8 10 9
3 5 9 8 16 10 13 11 14 10 10 7 10 12 7 9 10 10 11 11 10 17 18 15 19 23 13 16 14 17 12 12 12 12 10 10 10 11 14 15 14 13 13 13 12 9 10 9 9
8 8 7 6 7 6 6 20 9 10 10 8 8 8 10 8 8 12 11 15 16 17 15 22 21 9 20 20 17 15 15 14 14 12 12 14 12 13 14 15 16 12 13 14 12 10 10 10 7
3 5 1 4 5 8 10 10 10 9 8 7 7 11 10 12 14 13 15 16 17 23 22 15 9 19 18 17 15 13 14 14 15 13 12 14 12 10 13 13 14 14 15 14 12 11 10 12 11
4 9 7 7 6 7 6 9 7 8 8 9 11 12 12 11 14 16 17 22 19 17 8 15 17 15 15 14 13 14 13 14 12 13 13 13 13 13 14 12 13 13 13 13 13 12 12 14 11
Wind_Direction
210 221 234 260 241 156 218 90 341 3 79 55 23 27 66 45 25 35 67 60 93 108 129 142 132 137 130 124 129 138 147 152 153 155 153 155 157 158 159 158 162 168 166 161 159 166 167 169 158
242 249 245 269 224 13 68 43 56 30 53 334 77 44 61 60 21 60 83 84 110 115 136 133 131 136 134 126 128 124 140 152 152 154 159 160 163 164 166 164 170 177 176 172 170 173 178 174 156
258 264 273 241 221 46 34 37 35 89 77 275 124 33 41 41 54 75 78 101 90 125 139 116 132 139 144 138 135 131 137 142 147 152 158 163 164 167 171 169 176 184 188 189 192 192 193 193 189
249 224 236 250 58 64 58 22 14 100 274 82 61 303 80 41 75 78 86 105 149 119 116 128 129 135 144 145 140 141 141 137 145 154 159 164 168 171 171 171 175 191 205 212 215 213 211 208 205
239 258 256 212 86 65 41 52 321 32 87 248 126 115 95 89 99 101 113 118 112 115 108 138 134 139 143 142 134 133 143 139 148 156 166 166 165 164 177 174 186 201 214 220 224 228 224 223 217
243 261 264 92 94 51 52 2 287 119 52 346 146 64 89 109 109 124 119 100 92 112 119 135 141 147 148 147 150 143 134 130 141 152 162 173 183 185 184 186 197 217 232 239 239 239 237 233 226
256 262 16 358 94 61 6 3 19 35 64 35 347 46 45 97 101 100 86 81 96 130 115 148 160 155 159 161 159 153 148 150 154 153 158 160 173 181 193 201 213 219 228 238 239 239 238 236 235
292 277 201 351 20 74 345 105 50 355 47 67 10 138 169 110 127 115 131 121 121 128 127 142 165 171 185 169 173 175 174 173 171 176 183 188 194 197 198 206 215 220 226 237 245 247 248 251 249
246 261 92 37 11 49 23 14 13 254 88 70 53 60 90 117 140 127 132 130 101 54 127 127 172 158 193 179 163 174 186 195 200 206 209 202 230 202 214 213 218 203 214 226 235 238 239 239 240
252 274 58 23 26 3 66 29 0 35 42 24 72 81 110 102 46 38 43 48 45 44 107 65 136 100 185 149 146 194 185 205 210 219 205 229 230 240 254 133 189 189 213 224 231 236 234 233 246
212 10 63 50 27 336 31 65 32 49 58 49 69 85 65 77 83 75 57 35 24 24 343 200 118 72 342 26 285 231 209 201 183 264 278 252 273 226 214 232 202 214 213 230 215 226 229 239 236
252 73 348 37 106 37 58 95 70 71 74 69 62 68 70 58 57 51 45 95 99 139 359 19 79 80 29 30 338 302 263 32 43 3 300 322 280 277 284 287 280 248 255 211 233 231 219 216 227
250 112 185 100 81 96 91 82 88 77 80 79 77 76 79 75 71 60 52 48 39 45 42 50 40 30 330 89 116 4 8 16 22 347 305 242 258 257 266 256 257 252 251 247 244 245 258 268 257
106 246 180 165 149 112 93 120 111 74 61 76 77 75 65 57 63 66 53 64 63 43 48 43 68 44 12 9 20 37 21 298 179 239 230 265 260 281 286 274 260 263 266 263 264 252 249 247 255
204 215 187 186 162 131 70 41 97 113 108 96 97 88 87 89 82 68 66 63 63 59 45 53 68 57 39 22 351 344 345 311 274 268 326 308 295 283 283 282 283 291 282 297 307 298 297 285 269
231 236 193 163 194 205 218 149 118 119 114 105 99 90 83 76 72 73 72 63 52 46 56 45 37 65 55 32 22 359 20 288 222 278 291 277 269 272 275 277 286 300 344 314 300 300 306 287 272
207 211 192 152 208 277 242 138 117 120 117 114 109 111 105 93 79 75 67 66 57 54 42 37 32 27 14 29 4 5 17 310 333 318 247 261 292 288 280 280 282 290 254 244 261 265 260 259 264
178 221 168 178 171 248 124 95 110 130 125 122 124 107 102 94 85 77 74 54 51 47 38 40 29 14 357 9 3 359 347 343 333 330 332 317 314 309 305 306 297 281 276 270 253 250 253 260 263
353 233 127 65 112 244 98 141 155 136 132 140 127 123 115 113 104 93 79 61 55 50 41 27 26 15 357 9 360 356 348 342 341 324 339 331 303 327 315 299 301 293 288 293 295 261 254 251 253
242 152 115 142 204 266 145 168 157 164 149 137 140 131 129 123 112 92 82 71 53 43 38 29 17 15 8 357 6 357 335 334 327 339 324 302 347 318 312 315 300 291 290 280 269 273 272 266 253
222 252 148 215 185 256 192 144 310 167 159 134 118 128 135 127 128 105 83 44 16 29 31 28 11 352 17 1 5 357 342 343 347 334 336 357 328 310 302 313 303 281 275 281 288 281 271 287 290
202 212 254 180 253 214 262 250 203 175 163 174 146 146 134 131 148 133 84 66 353 4 103 25 15 5 9 4 351 347 352 345 334 334 341 329 306 328 327 300 314 317 306 271 278 266 262 261 265
52 349 274 260 247 288 232 251 58 32 110 158 150 149 126 170 99 65 11 33 20 22 57 106 25 4 5 0 3 349 354 342 329 335 330 315 345 325 6 357 343 332 319 314 293 291 293 289 279
62 237 232 243 247 234 358 313 108 159 196 148 139 130 174 117 70 133 348 61 19 10 6 4 9 350 26 2 359 358 2 341 340 348 337 346 334 342 343 350 327 322 320 314 311 312 305 303 301
228 209 231 232 216 130 203 304 63 59 56 119 111 154 73 299 43 25 25 20 15 358 353 348 7 356 22 9 6 3 1 350 357 354 354 343 346 350 352 336 329 314 311 314 323 324 316 322 326
45 328 348 330 335 11 178 38 83 72 72 69 124 91 52 43 27 28 18 358 344 0 360 354 6 5 17 10 7 13 9 20 12 10 2 2 351 345 341 338 332 330 336 332 343 2 4 25 23
63 254 30 297 250 255 117 128 99 85 87 50 65 68 47 25 27 15 2 340 353 4 356 2 22 21 7 358 3 12 22 24 11 17 360 7 349 348 343 346 344 349 355 352 9 27 20 40 38
293 359 281 225 313 321 352 66 79 47 36 47 48 44 50 357 352 3 348 5 5 359 6 32 9 356 7 5 9 6 11 15 8 8 2 10 8 358 352 352 349 4 19 12 18 26 36 47 45
243 204 21 286 293 328 290 82 49 55 46 37 34 38 10 7 353 355 354 3 16 31 5 26 354 9 3 15 1 10 7 8 7 3 3 354 8 3 359 0 358 3 19 23 26 36 47 57 52
14 355 337 318 16 326 286 89 58 36 50 20 15 24 358 1 341 354 7 37 21 4 349 21 20 3 13 4 8 19 16 13 2 347 5 357 357 21 20 11 9 12 19 26 23 32 27 24 25